Location: Biltmore Gardens
(41.6070°N, 83.4666°W)
Time: 14:28:04
(UTC+00:00)

Cosmos 2151 - Pass Details

Date: 14 July 2020
Orbit: 580 x 602 km, 82.5° (Epoch: 04 August)

Event Time Altitude Azimuth Distance (km) Brightness Sun altitude
Exits shadow 03:43:44 54° 199° (SSW) 727 3.1 -21.3°
Maximum altitude 03:44:40 82° 278° (W) 606 2.9 -21.4°
Drops below altitude 10° 03:48:56 10° 6° (N) 1,929 6.4 -21.8°
Sets 03:51:09 0° 7° (N) 2,831 7.3 -22.0°
